Regional Weather Roundup
Issued by NWS Little Rock, AR

Home | Current Version | Previous Version | Graphics & Text | Print | Product List | Glossary On
Versions: 1 2 3 4 5 6 7 8 9 10 11 12 13 14 15 16 17 18 19 20 21 22 23 24 25 26 27 28 29 30 31 32 33 34 35 36 37 38 39 40 41 42 43 44 45 46 47 48 49 50
000
ASUS44 KLZK 241505
RWRLZK

WEATHER ROUNDUP FOR ARKANSAS
NATIONAL WEATHER SERVICE LITTLE ROCK AR
1000 AM CDT THU JUL 24 2014

NOTE: "FAIR" INDICATES FEW OR NO CLOUDS BELOW 12,000 FEET WITH NO
SIGNIFICANT WEATHER AND/OR OBSTRUCTIONS TO VISIBILITY.

ARZ001-003-010-029-241600-
NORTHWEST ARKANSAS

CITY           SKY/WX    TMP DP  RH WIND       PRES   REMARKS
FAYETTEVILLE   CLOUDY    71  68  90 E7        30.14R
FORT SMITH     PTSUNNY   76  69  79 SE13      30.10S
HARRISON       PTSUNNY   72  53  51 E12       30.16S
BENTONVILLE    PTSUNNY   75  66  73 SE9       30.14S
ROGERS         PTSUNNY   76  67  73 E8        30.15R
SILOAM SPGS    CLOUDY    73  64  73 SE9       30.14R
HIGHFILL       CLOUDY    74  68  81 E10       30.14R
SPRINGDALE     CLOUDY    73  68  83 E13       30.15S
$$

ARZ004-005-016-241600-
NORTH CENTRAL ARKANSAS

CITY           SKY/WX    TMP DP  RH WIND       PRES   REMARKS
BATESVILLE     PTSUNNY   75  55  50 NE5       30.12S
FLIPPIN        MOSUNNY   73  57  56 E5        30.15S
MTN HOME       MOSUNNY   72  57  59 E10       30.14S
$$

ARZ040-041-241600-
WEST CENTRAL ARKANSAS

CITY           SKY/WX    TMP DP  RH WIND       PRES   REMARKS
MENA           SUNNY     77  68  73 NE3       30.12S
MOUNT IDA      CLOUDY    73  69  87 CALM      30.10R
$$

ARZ009-017-025-026-028-241600-
NORTHEAST ARKANSAS

CITY           SKY/WX    TMP DP  RH WIND       PRES   REMARKS
CORNING        FAIR      72  55  56 N9        30.12S
JONESBORO      SUNNY     74  57  55 N7        30.10S
NEWPORT        SUNNY     73  60  63 NE12      30.12S
WALNUT RIDGE   SUNNY     72  55  56 N10       30.11S
BLYTHEVILLE    SUNNY     72  61  68 N9        30.09S
$$

ARZ022-023-033-042-044-241600-
CENTRAL ARKANSAS

CITY           SKY/WX    TMP DP  RH WIND       PRES   REMARKS
LITTLE ROCK    CLOUDY    74  68  81 NE9       30.10R
N LITTLE ROCK  CLOUDY    74  71  92 NE7       30.10R
JACKSONVILLE   MOSUNNY   75  70  83 NE8       30.10R
SEARCY         SUNNY     75  61  62 NE13      30.11S
HOT SPRINGS    CLOUDY    73  70  90 VRB5      30.11S
RUSSELLVILLE   CLOUDY    75  69  81 E5        30.11R
CLINTON        PTSUNNY   75  63  64 CALM      30.12F
$$

ARZ036-241600-
EAST ARKANSAS

CITY           SKY/WX    TMP DP  RH WIND       PRES   REMARKS
WEST MEMPHIS   MOSUNNY   75  63  66 N12       30.06S
$$

ARZ050-053-066-070-073-241600-
SOUTHWEST ARKANSAS

CITY           SKY/WX    TMP DP  RH WIND       PRES   REMARKS
ARKADELPHIA    PTSUNNY   74  71  90 N6        30.10R
CAMDEN         CLOUDY    75  68  78 N6        30.07S
TEXARKANA      CLOUDY    72  70  93 N5        30.08S
EL DORADO      CLOUDY    75  70  84 NE6       30.08R
$$

ARZ056-057-069-241600-
SOUTHEAST ARKANSAS

CITY           SKY/WX    TMP DP  RH WIND       PRES   REMARKS
PINE BLUFF     CLOUDY    75  70  84 N9        30.08S
STUTTGART      CLOUDY    75  70  83 N9        30.09S
MONTICELLO     MOSUNNY   79  69  71 NE8       30.06R

$$




USA.gov is the U.S. government's official web portal to all federal, state and local government web resources and services.